TimeEDT,TemperatureF,Dew PointF,Humidity,Sea Level PressureIn,VisibilityMPH,Wind Direction,Wind SpeedMPH,Gust SpeedMPH,PrecipitationIn,Events,Conditions,WindDirDegrees,DateUTC
12:52 AM,33.1,28.9,85,30.04,10.0,Calm,Calm,-,N/A,,Mostly Cloudy,0,2013-03-30 04:52:00
1:52 AM,32.0,28.0,85,30.04,10.0,Calm,Calm,-,N/A,,Overcast,0,2013-03-30 05:52:00
2:52 AM,30.0,27.0,88,30.03,10.0,Calm,Calm,-,N/A,,Partly Cloudy,0,2013-03-30 06:52:00
3:52 AM,30.0,27.0,88,30.04,10.0,Calm,Calm,-,N/A,,Mostly Cloudy,0,2013-03-30 07:52:00
5:52 AM,28.0,25.0,88,30.04,10.0,Calm,Calm,-,N/A,,Overcast,0,2013-03-30 09:52:00
6:52 AM,25.0,21.9,88,30.06,10.0,Calm,Calm,-,N/A,,Partly Cloudy,0,2013-03-30 10:52:00
7:52 AM,30.0,27.0,88,30.06,10.0,Calm,Calm,-,N/A,,Clear,0,2013-03-30 11:52:00
8:52 AM,39.0,26.1,60,30.06,10.0,WNW,5.8,-,N/A,,Clear,290,2013-03-30 12:52:00
9:52 AM,41.0,24.1,51,30.06,10.0,West,6.9,-,N/A,,Clear,270,2013-03-30 13:52:00
10:52 AM,43.0,19.0,38,30.05,10.0,West,9.2,-,N/A,,Clear,270,2013-03-30 14:52:00
11:52 AM,45.0,15.1,30,30.04,10.0,NW,5.8,-,N/A,,Clear,310,2013-03-30 15:52:00
12:52 PM,46.0,15.1,29,30.03,10.0,NW,10.4,-,N/A,,Clear,310,2013-03-30 16:52:00
1:52 PM,46.9,14.0,27,30.02,10.0,Variable,4.6,-,N/A,,Clear,0,2013-03-30 17:52:00
2:52 PM,46.9,14.0,27,30.02,10.0,West,10.4,16.1,N/A,,Clear,270,2013-03-30 18:52:00
3:52 PM,46.9,12.9,25,30.02,10.0,WNW,9.2,-,N/A,,Clear,300,2013-03-30 19:52:00
4:52 PM,46.9,12.0,24,30.02,10.0,Variable,5.8,19.6,N/A,,Clear,0,2013-03-30 20:52:00
5:52 PM,46.0,12.0,25,30.04,10.0,NW,5.8,-,N/A,,Clear,310,2013-03-30 21:52:00
6:52 PM,43.0,10.9,27,30.05,10.0,Variable,3.5,-,N/A,,Clear,0,2013-03-30 22:52:00
7:52 PM,33.1,19.0,56,30.08,10.0,Calm,Calm,-,N/A,,Clear,0,2013-03-30 23:52:00
8:52 PM,28.9,19.9,69,30.10,10.0,Calm,Calm,-,N/A,,Clear,0,2013-03-31 00:52:00
9:52 PM,27.0,21.0,78,30.11,10.0,Calm,Calm,-,N/A,,Clear,0,2013-03-31 01:52:00
10:52 PM,25.0,19.0,78,30.10,10.0,Calm,Calm,-,N/A,,Clear,0,2013-03-31 02:52:00
11:52 PM,23.0,19.0,85,30.11,10.0,Calm,Calm,-,N/A,,Clear,0,2013-03-31 03:52:00